Time,TemperatureF,DewpointF,PressureIn,WindDirection,WindDirectionDegrees,WindSpeedMPH,WindSpeedGustMPH,Humidity,HourlyPrecipIn,Conditions,Clouds,dailyrainin,SoftwareType,DateUTC
2013-06-22 06:11:00,49.0,46.0,30.05,NW,315,0.0,0.0,90,0.00,,,0.00,,2013-06-22 13:11:00,
2013-06-22 06:21:00,49.0,46.0,30.05,NW,314,0.0,0.0,91,0.00,,,0.00,,2013-06-22 13:21:00,
2013-06-22 08:11:00,54.0,52.0,30.04,NW,306,0.0,1.0,94,0.00,,,0.00,,2013-06-22 15:11:00,
2013-06-22 08:22:00,54.0,52.0,30.03,NW,306,0.0,1.0,93,0.00,,,0.00,,2013-06-22 15:22:00,
2013-06-22 08:34:00,55.0,52.0,30.03,NW,306,0.0,1.0,91,0.00,,,0.00,,2013-06-22 15:34:00,
2013-06-22 08:43:00,56.0,52.0,30.03,NW,306,0.0,1.0,88,0.00,,,0.00,,2013-06-22 15:43:00,
2013-06-22 08:53:00,57.0,53.0,30.03,NW,306,0.0,1.0,86,0.00,,,0.00,,2013-06-22 15:53:00,
2013-06-22 09:02:00,57.0,53.0,30.03,ENE,76,0.0,2.0,85,0.00,,,0.00,,2013-06-22 16:02:00,
2013-06-22 09:12:00,58.0,52.0,30.03,NE,51,2.0,4.0,81,0.00,,,0.00,,2013-06-22 16:12:00,
2013-06-22 09:22:00,59.0,52.0,30.02,NE,49,1.0,4.0,79,0.00,,,0.00,,2013-06-22 16:22:00,
2013-06-22 09:34:00,60.0,53.0,30.02,East,80,0.0,2.0,77,0.00,,,0.00,,2013-06-22 16:34:00,
2013-06-22 09:43:00,61.0,52.0,30.02,NNW,339,0.0,3.0,73,0.00,,,0.00,,2013-06-22 16:43:00,
2013-06-22 09:52:00,62.0,53.0,30.02,South,171,1.0,3.0,72,0.00,,,0.00,,2013-06-22 16:52:00,
2013-06-22 10:01:00,65.0,54.0,30.02,South,169,2.0,5.0,67,0.00,,,0.00,,2013-06-22 17:01:00,
2013-06-22 10:11:00,66.0,53.0,30.01,SSE,157,1.0,4.0,64,0.00,,,0.00,,2013-06-22 17:11:00,
2013-06-22 10:22:00,67.0,53.0,30.01,East,86,1.0,3.0,61,0.00,,,0.00,,2013-06-22 17:22:00,
2013-06-22 10:43:00,68.0,54.0,30.01,SSE,164,0.0,5.0,60,0.00,,,0.00,,2013-06-22 17:43:00,
2013-06-22 10:52:00,68.0,53.0,30.00,ENE,78,0.0,5.0,58,0.00,,,0.00,,2013-06-22 17:52:00,
2013-06-22 11:01:00,69.0,53.0,30.00,ENE,78,0.0,3.0,57,0.00,,,0.00,,2013-06-22 18:01:00,
2013-06-22 11:11:00,70.0,54.0,30.00,ENE,78,0.0,1.0,57,0.00,,,0.00,,2013-06-22 18:11:00,
2013-06-22 11:22:00,70.0,54.0,30.00,ENE,57,0.0,4.0,56,0.00,,,0.00,,2013-06-22 18:22:00,
2013-06-22 11:33:00,71.0,54.0,30.00,ENE,73,0.0,3.0,55,0.00,,,0.00,,2013-06-22 18:33:00,
2013-06-22 11:43:00,72.0,54.0,29.99,ESE,105,1.0,4.0,54,0.00,,,0.00,,2013-06-22 18:43:00,
2013-06-22 11:52:00,73.0,54.0,29.99,East,79,2.0,5.0,52,0.00,,,0.00,,2013-06-22 18:52:00,
2013-06-22 12:01:00,74.0,54.0,29.99,ENE,61,1.0,5.0,50,0.00,,,0.00,,2013-06-22 19:01:00,
2013-06-22 12:11:00,74.0,54.0,29.98,ENE,58,1.0,3.0,50,0.00,,,0.00,,2013-06-22 19:11:00,
2013-06-22 12:33:00,74.0,53.0,29.98,East,80,0.0,2.0,48,0.00,,,0.00,,2013-06-22 19:33:00,
2013-06-22 12:42:00,75.0,56.0,29.97,ENE,71,0.0,5.0,51,0.00,,,0.00,,2013-06-22 19:42:00,
2013-06-22 12:52:00,76.0,52.0,29.97,East,80,1.0,3.0,44,0.00,,,0.00,,2013-06-22 19:52:00,
2013-06-22 13:02:00,76.0,51.0,29.97,ENE,71,1.0,4.0,42,0.00,,,0.00,,2013-06-22 20:02:00,
2013-06-22 13:11:00,77.0,51.0,29.96,North,5,1.0,4.0,41,0.00,,,0.00,,2013-06-22 20:11:00,
2013-06-22 13:22:00,78.0,52.0,29.96,SE,124,1.0,5.0,40,0.00,,,0.00,,2013-06-22 20:22:00,
2013-06-22 13:33:00,79.0,51.0,29.95,South,179,2.0,8.0,38,0.00,,,0.00,,2013-06-22 20:33:00,
2013-06-22 13:42:00,79.0,50.0,29.95,South,176,0.0,5.0,36,0.00,,,0.00,,2013-06-22 20:42:00,
2013-06-22 13:53:00,80.0,50.0,29.94,ENE,78,1.0,7.0,35,0.00,,,0.00,,2013-06-22 20:53:00,
2013-06-22 14:01:00,80.0,47.0,29.94,East,96,3.0,6.0,32,0.00,,,0.00,,2013-06-22 21:01:00,
2013-06-22 14:21:00,81.0,46.0,29.93,ENE,77,1.0,5.0,29,0.00,,,0.00,,2013-06-22 21:21:00,
2013-06-22 14:33:00,82.0,47.0,29.93,SSE,164,1.0,7.0,29,0.00,,,0.00,,2013-06-22 21:33:00,
2013-06-22 14:43:00,81.0,46.0,29.92,NNE,19,4.0,6.0,29,0.00,,,0.00,,2013-06-22 21:43:00,
2013-06-22 14:53:00,81.0,47.0,29.92,NE,37,0.0,6.0,31,0.00,,,0.00,,2013-06-22 21:53:00,
2013-06-22 15:01:00,81.0,47.0,29.91,East,81,1.0,5.0,30,0.00,,,0.00,,2013-06-22 22:01:00,
2013-06-22 15:11:00,82.0,46.0,29.91,South,175,3.0,6.0,28,0.00,,,0.00,,2013-06-22 22:11:00,
2013-06-22 15:23:00,81.0,44.0,29.91,South,181,4.0,6.0,27,0.00,,,0.00,,2013-06-22 22:23:00,
2013-06-22 15:43:00,81.0,45.0,29.90,South,171,2.0,7.0,28,0.00,,,0.00,,2013-06-22 22:43:00,
2013-06-22 15:52:00,80.0,45.0,29.90,East,101,0.0,6.0,29,0.00,,,0.00,,2013-06-22 22:52:00,
2013-06-22 16:01:00,80.0,43.0,29.89,ENE,65,1.0,4.0,27,0.00,,,0.00,,2013-06-22 23:01:00,
2013-06-22 16:11:00,79.0,44.0,29.89,NE,38,0.0,3.0,29,0.00,,,0.00,,2013-06-22 23:11:00,
2013-06-22 16:42:00,80.0,47.0,29.88,West,270,0.0,4.0,31,0.00,,,0.00,,2013-06-22 23:42:00,
2013-06-22 16:52:00,80.0,47.0,29.87,SE,142,3.0,5.0,32,0.00,,,0.00,,2013-06-22 23:52:00,
2013-06-22 17:01:00,80.0,47.0,29.87,SE,142,3.0,5.0,32,0.00,,,0.00,,2013-06-23 00:01:00,
2013-06-22 17:11:00,80.0,50.0,29.86,South,175,3.0,5.0,35,0.00,,,0.00,,2013-06-23 00:11:00,
2013-06-22 17:21:00,80.0,50.0,29.85,South,169,4.0,7.0,35,0.00,,,0.00,,2013-06-23 00:21:00,
2013-06-22 17:33:00,80.0,50.0,29.85,South,179,2.0,7.0,35,0.00,,,0.00,,2013-06-23 00:33:00,
2013-06-22 17:40:00,80.0,51.0,29.85,South,186,0.0,3.0,36,0.00,,,0.00,,2013-06-23 00:40:00,
2013-06-22 17:42:00,80.0,49.0,29.85,SSW,201,2.0,4.0,34,0.00,,,0.00,,2013-06-23 00:42:00,
2013-06-22 17:52:00,80.0,49.0,29.85,SSW,201,2.0,4.0,34,0.00,,,0.00,,2013-06-23 00:52:00,
2013-06-22 18:01:00,80.0,51.0,29.85,South,186,0.0,3.0,36,0.00,,,0.00,,2013-06-23 01:01:00,
2013-06-22 18:11:00,80.0,51.0,29.85,South,186,0.0,3.0,36,0.00,,,0.00,,2013-06-23 01:11:00,
2013-06-22 18:21:00,80.0,51.0,29.85,South,186,0.0,3.0,36,0.00,,,0.00,,2013-06-23 01:21:00,
2013-06-22 18:32:00,80.0,51.0,29.85,South,186,0.0,3.0,36,0.00,,,0.00,,2013-06-23 01:32:00,
2013-06-22 19:52:00,78.0,54.0,29.84,WNW,283,1.0,9.0,44,0.00,,,0.00,,2013-06-23 02:52:00,
2013-06-22 20:01:00,78.0,54.0,29.84,WNW,283,1.0,9.0,44,0.00,,,0.00,,2013-06-23 03:01:00,
2013-06-22 20:11:00,78.0,54.0,29.84,WNW,283,1.0,9.0,44,0.00,,,0.00,,2013-06-23 03:11:00,
2013-06-22 20:21:00,78.0,54.0,29.84,WNW,283,1.0,9.0,44,0.00,,,0.00,,2013-06-23 03:21:00,
2013-06-22 20:31:00,78.0,54.0,29.84,WNW,283,1.0,9.0,44,0.00,,,0.00,,2013-06-23 03:31:00,
2013-06-22 20:51:00,77.0,54.0,29.84,NW,313,0.0,10.0,45,0.00,,,0.00,,2013-06-23 03:51:00,
2013-06-22 21:01:00,77.0,54.0,29.84,NW,313,0.0,10.0,45,0.00,,,0.00,,2013-06-23 04:01:00,
2013-06-22 21:11:00,77.0,54.0,29.84,NW,313,0.0,10.0,45,0.00,,,0.00,,2013-06-23 04:11:00,
2013-06-22 21:21:00,77.0,54.0,29.84,NW,313,0.0,10.0,45,0.00,,,0.00,,2013-06-23 04:21:00,
2013-06-22 21:31:00,70.0,54.0,29.84,West,271,2.0,5.0,56,0.00,,,0.00,,2013-06-23 04:31:00,
2013-06-22 21:42:00,70.0,54.0,29.84,West,271,2.0,5.0,56,0.00,,,0.00,,2013-06-23 04:42:00,
2013-06-22 21:52:00,70.0,54.0,29.84,West,271,2.0,5.0,56,0.00,,,0.00,,2013-06-23 04:52:00,
2013-06-22 22:01:00,70.0,54.0,29.84,West,271,2.0,5.0,56,0.00,,,0.00,,2013-06-23 05:01:00,
2013-06-22 22:10:00,70.0,54.0,29.84,West,271,2.0,5.0,56,0.00,,,0.00,,2013-06-23 05:10:00,
2013-06-22 22:42:00,66.0,51.0,29.85,West,261,0.0,1.0,59,0.00,,,0.00,,2013-06-23 05:42:00,
2013-06-22 22:51:00,66.0,50.0,29.85,WSW,241,0.0,2.0,57,0.00,,,0.00,,2013-06-23 05:51:00,
2013-06-22 23:02:00,66.0,50.0,29.85,SSW,205,0.0,6.0,57,0.00,,,0.00,,2013-06-23 06:02:00,
2013-06-22 23:11:00,65.0,49.0,29.85,SSW,205,2.0,5.0,57,0.00,,,0.00,,2013-06-23 06:11:00,
2013-06-22 23:22:00,65.0,50.0,29.85,SSW,207,0.0,3.0,58,0.00,,,0.00,,2013-06-23 06:22:00,
2013-06-22 23:32:00,65.0,50.0,29.85,SW,224,0.0,1.0,59,0.00,,,0.00,,2013-06-23 06:32:00,
2013-06-22 23:43:00,65.0,50.0,29.85,SW,224,0.0,1.0,59,0.00,,,0.00,,2013-06-23 06:43:00,
2013-06-22 23:52:00,64.0,49.0,29.84,SW,224,0.0,0.0,59,0.00,,,0.00,,2013-06-23 06:52:00,